Flag for Germany Weather past 2 weeks in Hürth, North Rhine-Westphalia, Germany

Now
63 °F

Passing clouds.


Feels Like: 63 °F
Forecast: 52 / 72 °F
Wind: 2 mph from West

Location: Noervenich

Current Time: Sep 2, 2014 at 11:38:10 AM

Latest Report: Sep 2, 2014 at 10:20 AM


Visibility: N/A

Pressure: 30.18 "Hg

Humidity: 77%

Dew point: 55 °F

Location of HürthLocation

Historic Weather in Hürth — Graph

°F

Hürth temperature yesterday

Maximum temperature yesterday: 66 °F (at 5:20 PM)
Minimum temperature yesterday: 54 °F (at 12:20 AM)
Average temperature yesterday: 58 °F

Past Weeks' High & Low Weather Summary

 TemperatureHumidityPressure
High72 °F (Aug 28, 12:20 PM)100% (Aug 20, 9:20 PM)30.18 "Hg (Aug 20, 9:20 PM)
Low45 °F (Aug 20, 6:20 AM)40% (Aug 21, 3:20 PM)29.62 "Hg (Aug 26, 4:20 AM)
Average58 °F81%29.97 "Hg
* Reported Aug 18 10:20 AM — Sep 2 10:20 AM, Hürth, Weather by CustomWeather, © 2014

Note: Actual official high and low records may vary slightly from our data, if they occured in-between our weather recording intervals... More about our weather records

Advertising

Hürth weather history for previous 24 hours

 ConditionsComfort  
Time TempWeatherWind HumidityBarometerVisibility
10:20 AM
Sep 2
63 °FPassing clouds.2 mph77%30.18 "HgN/A
9:20 AM59 °FPassing clouds.2 mph88%30.18 "HgN/A
8:20 AM55 °FPassing clouds.No wind88%30.15 "HgN/A
7:20 AM52 °FPassing clouds.No wind94%30.15 "HgN/A
6:20 AM52 °FPassing clouds.No wind94%30.15 "HgN/A
5:20 AM50 °FPartly cloudy.No wind100%30.15 "HgN/A
4:20 AM52 °FPassing clouds.No wind94%30.15 "HgN/A
3:20 AM52 °FPassing clouds.2 mph100%30.15 "HgN/A
2:20 AM54 °FPassing clouds.No wind94%30.15 "HgN/A
1:20 AM54 °FPartly cloudy.No wind100%30.15 "HgN/A
12:20 AM55 °FPassing clouds.No wind94%30.15 "HgN/A
11:20 PM
Sep 1
57 °FPartly cloudy.1 mph88%30.15 "HgN/A
10:20 PM57 °FPartly cloudy.No wind88%30.15 "HgN/A
9:20 PM57 °FPassing clouds.No wind88%30.15 "HgN/A
8:20 PM57 °FPartly sunny.1 mph94%30.15 "HgN/A
7:20 PM63 °FPartly sunny.No wind83%30.12 "HgN/A
6:20 PM64 °FPartly sunny.1 mph68%30.12 "HgN/A
5:20 PM66 °FPartly sunny.3 mph56%30.12 "HgN/A
4:20 PM64 °FPartly sunny.5 mph64%30.15 "HgN/A
3:20 PM64 °FBroken clouds.8 mph68%30.15 "HgN/A
2:20 PM64 °FScattered clouds.3 mph64%30.15 "HgN/A
1:20 PM64 °FScattered clouds.6 mph73%30.15 "HgN/A
12:20 PM63 °FScattered clouds.3 mph73%30.15 "HgN/A
11:20 AM61 °FPassing clouds.6 mph77%30.15 "HgN/A
Weather by CustomWeather, © 2014

See weather overviewHow to use our weather pages